Cloud_Cover
66 91 55 5 4 5 5 7 100 9 100 99 96 55 100 28 64 5 100 100 100 100 100 100 100 100 100 100 100 100 100 100 100 14 5 4 0 2 5 5 5 5 5 41
88 100 24 5 5 5 5 5 14 95 100 100 98 100 100 17 89 100 100 100 100 100 100 100 100 100 100 100 100 100 94 5 4 0 0 0 1 4 1 3 3 4 6 5
94 77 5 1 5 5 5 6 81 95 100 100 98 100 5 3 5 37 100 100 100 100 100 100 100 100 100 100 99 100 8 5 5 27 54 6 4 5 5 4 5 5 5 5
56 87 5 0 37 17 96 100 100 100 60 100 82 90 76 16 92 100 100 100 100 100 100 100 100 100 100 100 98 5 57 95 15 4 5 5 4 1 4 5 5 5 5 5
36 5 5 31 100 90 100 100 92 67 37 94 100 100 100 100 100 100 100 100 100 100 100 100 100 100 100 100 100 100 100 85 5 5 5 0 5 5 5 5 5 5 5 5
95 34 12 35 32 4 16 33 100 69 77 90 100 100 100 100 100 100 100 100 100 100 100 100 100 100 100 100 100 100 77 31 6 29 81 12 6 6 37 9 5 5 5 5
15 9 15 24 5 1 5 29 100 45 13 46 17 26 100 100 100 100 100 100 100 100 100 100 100 100 100 100 100 100 100 26 3 16 28 20 95 100 88 17 5 18 37 88
5 31 11 5 5 5 5 46 100 100 49 18 6 8 100 100 92 92 100 100 100 100 100 100 100 100 100 100 100 100 59 0 19 12 39 71 93 99 84 100 100 99 35 98
5 4 0 7 5 5 3 29 5 72 100 69 5 5 5 7 10 54 100 100 90 100 100 100 100 99 97 88 75 5 0 0 5 74 71 100 100 100 100 100 100 100 100 58
2 30 9 5 4 0 0 3 4 5 19 75 5 5 1 8 5 5 100 100 100 100 100 99 70 71 11 0 0 0 0 2 62 100 100 100 100 100 80 83 100 98 11 5
5 4 1 0 0 3 4 0 5 6 9 54 18 4 5 11 97 93 100 100 100 85 36 5 64 8 4 0 0 0 0 1 43 100 100 73 33 6 12 88 90 5 5 5
5 5 18 5 5 3 10 7 5 5 33 57 6 26 5 10 56 32 10 68 85 99 12 65 7 3 0 0 0 0 0 0 0 0 0 5 6 90 37 5 5 5 1 0
5 4 5 8 5 5 5 10 60 99 17 13 5 91 5 5 42 14 5 99 100 68 50 5 4 0 0 0 0 0 0 0 0 0 2 14 73 11 44 21 5 4 0 0
5 5 5 14 52 5 5 55 26 5 5 100 75 53 2 1 64 42 11 100 21 40 5 4 0 0 0 1 3 0 0 0 0 0 4 25 67 24 78 6 5 0 0 0
13 5 5 5 74 100 10 5 81 20 5 5 45 14 5 29 5 5 97 16 5 5 5 0 4 0 0 5 5 0 5 0 0 0 13 70 35 99 14 5 3 0 0 0
6 5 41 73 14 5 5 4 98 80 4 3 5 2 5 49 40 16 100 37 6 5 1 0 5 3 5 5 5 1 4 0 0 5 24 38 15 10 5 5 0 0 0 0
42 11 5 5 0 3 3 3 19 2 0 0 0 0 0 8 57 100 100 42 5 90 5 5 5 5 5 5 5 2 5 0 4 5 38 29 67 32 8 0 0 0 0 0
5 6 46 68 5 5 0 0 0 0 0 0 0 5 4 5 100 82 95 52 97 100 5 5 5 5 5 5 4 5 5 5 2 26 55 77 77 42 2 0 0 0 0 0
6 99 93 74 40 4 1 0 0 0 0 0 5 24 5 51 61 5 9 100 98 5 5 5 5 5 5 4 1 0 0 5 2 73 99 97 90 6 0 0 0 0 0 1
5 17 86 81 99 5 1 0 0 0 0 0 1 1 6 19 6 33 100 65 5 5 5 5 5 5 5 5 4 0 5 5 5 100 99 93 84 5 0 0 0 0 0 5
3 67 5 78 100 34 19 0 1 2 5 0 5 67 38 95 93 100 5 5 22 17 85 39 5 20 5 5 5 3 5 3 38 100 95 83 10 4 0 0 4 1 5 5
29 65 74 65 88 50 48 6 0 24 5 5 8 11 88 98 86 27 5 14 36 86 31 5 26 15 5 5 5 0 0 12 88 100 100 64 5 0 0 5 1 2 5 5
4 0 3 0 2 2 11 11 3 0 4 6 56 72 0 9 79 5 76 94 90 29 54 70 5 20 38 5 5 3 4 96 100 100 98 27 5 0 4 5 3 5 5 5
0 0 3 5 5 0 0 3 5 5 4 6 6 5 5 60 94 79 100 100 99 90 100 11 6 70 60 23 5 4 12 100 100 100 78 7 5 3 1 1 5 5 5 35
0 2 0 1 5 4 5 4 52 60 5 5 5 5 5 5 5 80 100 100 100 100 100 100 58 65 27 48 5 5 22 98 100 100 48 5 5 4 0 4 5 5 5 95
0 0 1 5 5 1 14 21 83 27 78 99 84 99 98 11 36 100 100 100 100 100 100 69 26 56 39 64 5 5 21 100 100 100 38 5 5 5 5 5 5 5 46 95